| time (UTC) | temp F | wind direction | speed knots | gust knots | rain 1hr in | rain 24hr in | rain mn in | humidity % | barometer mb |
| 20260505011600 | 75 | 315 | 8.7 | 17.4 | 0.00 | 0.00 | 0.00 | 36 | 1002.3 |
| 20260505010104 | 78 | 355 | 3.5 | 9.6 | 0.00 | 0.00 | 0.00 | 31 | 1001.9 |
| 20260505004600 | 80 | 0 | 0.0 | 3.5 | 0.00 | 0.00 | 0.00 | 29 | 1001.4 |
| 20260505003106 | 81 | 318 | 0.9 | 3.5 | 0.00 | 0.00 | 0.00 | 27 | 1001.3 |
| 20260505001601 | 81 | 294 | 2.6 | 7.0 | 0.00 | 0.00 | 0.00 | 26 | 1001.3 |
| 20260504234559 | 82 | 309 | 2.6 | 10.4 | 0.00 | 0.00 | 0.00 | 25 | 1001.2 |
| 20260504233059 | 82 | 287 | 5.2 | 10.4 | 0.00 | 0.00 | 0.00 | 25 | 1001.1 |
| 20260504231558 | 83 | 293 | 1.7 | 11.3 | 0.00 | 0.00 | 0.00 | 26 | 1001.1 |
| 20260504230059 | 82 | 325 | 4.3 | 9.6 | 0.00 | 0.00 | 0.00 | 26 | 1001.2 |
| 20260504224558 | 82 | 273 | 5.2 | 10.4 | 0.00 | 0.00 | 0.00 | 27 | 1001.2 |
| 20260504223117 | 81 | 0 | 3.5 | 7.8 | 0.00 | 0.00 | 0.00 | 30 | 1001.2 |
| 20260504221602 | 81 | 254 | 3.5 | 13.9 | 0.00 | 0.00 | 0.00 | 29 | 1001.1 |
| 20260504214558 | 83 | 232 | 5.2 | 13.9 | 0.00 | 0.00 | 0.00 | 29 | 1001.0 |
| 20260504213109 | 83 | 237 | 6.1 | 13.9 | 0.00 | 0.00 | 0.00 | 31 | 1001.0 |
| 20260504211651 | 83 | 282 | 3.5 | 13.9 | 0.00 | 0.00 | 0.00 | 32 | 1001.0 |
| 20260504210101 | 82 | 262 | 4.3 | 10.4 | 0.00 | 0.00 | 0.00 | 32 | 1001.1 |
| 20260504204604 | 84 | 286 | 3.5 | 11.3 | 0.00 | 0.00 | 0.00 | 32 | 1001.2 |
| 20260504203107 | 84 | 260 | 2.6 | 12.2 | 0.00 | 0.00 | 0.00 | 31 | 1001.2 |
| 20260504201613 | 84 | 262 | 5.2 | 11.3 | 0.00 | 0.00 | 0.00 | 31 | 1001.3 |
| 20260504200101 | 83 | 264 | 3.5 | 12.2 | 0.00 | 0.00 | 0.00 | 35 | 1001.3 |
| 20260504194559 | 83 | 246 | 3.5 | 10.4 | 0.00 | 0.00 | 0.00 | 36 | 1001.3 |
| 20260504193110 | 84 | 97 | 1.7 | 10.4 | 0.00 | 0.00 | 0.00 | 39 | 1001.5 |
| 20260504191612 | 82 | 242 | 4.3 | 9.6 | 0.00 | 0.00 | 0.00 | 39 | 1001.5 |
| 20260504190109 | 81 | 180 | 3.5 | 10.4 | 0.00 | 0.00 | 0.00 | 42 | 1001.7 |
| 20260504184557 | 80 | 265 | 4.3 | 13.0 | 0.00 | 0.00 | 0.00 | 40 | 1001.8 |
| 20260504183057 | 80 | 242 | 6.1 | 10.4 | 0.00 | 0.00 | 0.00 | 41 | 1001.9 |
| 20260504181604 | 80 | 142 | 4.3 | 11.3 | 0.00 | 0.00 | 0.00 | 41 | 1001.9 |
| 20260504174602 | 78 | 221 | 5.2 | 11.3 | 0.00 | 0.00 | 0.00 | 44 | 1002.2 |
| 20260504173100 | 78 | 220 | 4.3 | 11.3 | 0.00 | 0.00 | 0.00 | 45 | 1002.2 |
| 20260504171601 | 77 | 229 | 5.2 | 12.2 | 0.00 | 0.00 | 0.00 | 46 | 1002.4 |
| 20260504120103 | 56 | 128 | 0.9 | 2.6 | 0.00 | 0.00 | 0.00 | 75 | 1003.2 |
| 20260504081556 | 56 | 0 | 0.0 | 0.9 | 0.00 | 0.00 | 0.00 | 75 | 1005.6 |
| 20260504060138 | 59 | 150 | 3.5 | 7.8 | 0.00 | 0.00 | 0.00 | 63 | 1007.6 |
| 20260504044600 | 61 | 167 | 0.0 | 4.3 | 0.00 | 0.00 | 0.00 | 56 | 1007.8 |
| 20260504043101 | 63 | 178 | 0.9 | 4.3 | 0.00 | 0.00 | 0.00 | 48 | 1008.0 |
| 20260504041559 | 63 | 0 | 0.0 | 2.6 | 0.00 | 0.00 | 0.00 | 48 | 1007.9 |
| 20260504040132 | 63 | 0 | 0.0 | 0.0 | 0.00 | 0.00 | 0.00 | 47 | 1008.0 |
| 20260504034602 | 63 | 0 | 0.0 | 0.9 | 0.00 | 0.00 | 0.00 | 48 | 1008.1 |
| 20260504033058 | 64 | 0 | 0.0 | 0.0 | 0.00 | 0.00 | 0.00 | 47 | 1008.3 |
| 20260504031625 | 64 | 0 | 0.0 | 1.7 | 0.00 | 0.00 | 0.00 | 45 | 1008.2 |
| 20260504030059 | 64 | 0 | 0.0 | 0.0 | 0.00 | 0.00 | 0.00 | 45 | 1008.3 |
| 20260504024603 | 65 | 0 | 0.0 | 1.7 | 0.00 | 0.00 | 0.00 | 44 | 1008.3 |
| 20260504023056 | 65 | 0 | 0.0 | 0.9 | 0.00 | 0.00 | 0.00 | 44 | 1008.4 |
| 20260504021557 | 66 | 0 | 0.0 | 0.0 | 0.00 | 0.00 | 0.00 | 43 | 1008.5 |
| 20260504020112 | 66 | 0 | 0.0 | 0.0 | 0.00 | 0.00 | 0.00 | 44 | 1008.7 |
| 20260504014558 | 67 | 0 | 0.0 | 1.7 | 0.00 | 0.00 | 0.00 | 44 | 1008.6 |
| 20260504013058 | 69 | 0 | 0.0 | 0.0 | 0.00 | 0.00 | 0.00 | 42 | 1008.6 |